Tracking 20621 objects as of 29-Mar-2020
HD Live streaming from Space Station
objects crossing your sky now

SL-14 R/B

Track SL-14 R/B now!
10-day predictions


NORAD ID: 16144
Int'l Code: 1985-094G
Perigee: 1,422.3 km
Apogee: 1,480.4 km
Inclination: 82.6 °
Period: 114.8 minutes
Semi major axis: 7822 km
RCS: 6.98 m2 (large)
Launch date: October 9, 1985
Source: Commonwealth of Independent States (former USSR) (CIS)
Launch site: PLESETSK MISSILE AND SPACE COMPLEX (PKMTR)

Note: This is a ROCKET BODY
aabbcc
Your satellite tracking list
Your tracking list is empty




NASA's NSSDC Master Catalog

Two Line Element Set (TLE):
1 16144U 85094G   20089.30418083 +.00000026 +00000-0 +96206-4 0  9993
2 16144 082.6118 036.9658 0037100 133.0581 337.0920 12.54870183578927
Source of the keplerian elements: AFSPC